"Timestamp","TZ","WindDir_Mean (deg)","WindSpd_Mean (km/h)","WindSpd_Min (km/h)","WindSpd_Max (km/h)","Temp_Mean (deg)","RH_Mean (%)","MSLP_Mean (hPa)","Rain_Acc (mm)","Rain_Intensity (mm/h)","Hail_Acc (hits/cm2)","Hail_Intensity (hits/cm2hr)","Solar_Mean (W/m2)"
2023/03/08 00:00:00.012,n,353,10.440002,5.76,12.24,25.4,70.1,1010.32,0,0,0,0,0.02697
2023/03/08 00:01:00.001,n,340,14.76,12.24,19.8,25.4,70.2,1010.22,0,0,0,0,0.02697
2023/03/08 00:02:00.001,n,25,12.24,8.64,14.04,25.3,69.9,1010.22,0,0,0,0,0.030441
2023/03/08 00:03:00.001,n,358,12.6,11.52,14.4,25.3,70,1010.22,0,0,0,0,0.027847
2023/03/08 00:04:00.003,n,7,12.96,11.52,16.2,25.3,70,1010.22,0,0,0,0,0.028687
2023/03/08 00:05:00.004,n,20,10.8,9.36,12.24,25.3,70,1010.22,0,0,0,0,0.026093
2023/03/08 00:06:00.004,n,354,14.4,13.68,15.12,25.3,70,1010.22,0,0,0,0,0.02697
2023/03/08 00:07:00.005,n,16,15.48,14.4,16.56,25.3,69.9,1010.32,0,0,0,0,0.026093
2023/03/08 00:08:00.008,n,6,9,5.4,11.52,25.3,70,1010.32,0,0,0,0,0.026093
2023/03/08 00:09:00.014,n,17,11.88,10.8,14.04,25.3,70,1010.32,0,0,0,0,0.024338
2023/03/08 00:10:00.001,n,352,11.88,7.2,14.76,25.3,70,1010.32,0,0,0,0,0.02697
2023/03/08 00:11:00.002,n,155,1.44,0.36,2.52,25.3,70.1,1010.42,0,0,0,0,0.02697
2023/03/08 00:12:00.001,n,354,7.92,5.76,14.4,25.3,70.1,1010.42,0,0,0,0,0.025215
2023/03/08 00:13:00.001,n,354,12.24,8.28,14.4,25.3,70.1,1010.42,0,0,0,0,0.021744
2023/03/08 00:14:00.001,n,358,11.52,9.72,14.4,25.3,70.3,1010.42,0,0,0,0,0.02346
2023/03/08 00:15:00.001,n,21,10.8,6.84,13.68,25.3,70.3,1010.42,0,0,0,0,0.026093
2023/03/08 00:16:00.001,n,348,15.12,12.24,18.359998,25.3,70.1,1010.42,0,0,0,0,0.024338
2023/03/08 00:17:00.003,n,3,11.52,7.92,14.4,25.3,70.1,1010.42,0,0,0,0,0.024338
2023/03/08 00:18:00.005,n,352,11.88,9.36,14.76,25.3,70.2,1010.42,0,0,0,0,0.025215
2023/03/08 00:19:00.001,n,12,9,7.56,11.52,25.3,70.3,1010.42,0,0,0,0,0.024338
2023/03/08 00:20:00.001,n,8,6.48,5.04,9,25.3,70.3,1010.32,0,0,0,0,0.025215
2023/03/08 00:21:00.002,n,23,9,7.92,12.24,25.2,70.1,1010.32,0,0,0,0,0.024338
2023/03/08 00:22:00.002,n,21,12.6,11.16,14.4,25.2,70.2,1010.32,0,0,0,0,0.02346
2023/03/08 00:23:00.003,n,4,10.8,7.56,14.4,25.2,70.1,1010.42,0,0,0,0,0.025215
2023/03/08 00:24:00.003,n,18,7.56,6.48,10.440002,25.2,70.2,1010.42,0,0,0,0,0.025215
2023/03/08 00:25:00.006,n,349,11.52,9,13.68,25.2,70.2,1010.42,0,0,0,0,0.024338
2023/03/08 00:26:00.008,n,3,11.88,10.08,15.48,25.3,70.2,1010.42,0,0,0,0,0.025215
2023/03/08 00:27:00.010,n,11,8.64,6.84,10.440002,25.2,70.2,1010.52,0,0,0,0,0.02697
2023/03/08 00:28:00.002,n,307,5.04,0.72,9.72,25.3,72,1010.52,0,0,0,0,0.026093
2023/03/08 00:29:00.001,n,8,4.68,2.16,6.48,25.3,70.3,1010.52,0,0,0,0,0.027847
2023/03/08 00:30:00.002,n,0,8.28,4.68,12.6,25.2,70.1,1010.52,0,0,0,0,0.028687
2023/03/08 00:31:00.001,n,21,10.440002,6.84,16.56,25.2,71,1010.52,0,0,0,0,0.027847
2023/03/08 00:32:00.002,n,16,11.16,10.08,12.6,25.2,70,1010.52,0,0,0,0,0.026093
2023/03/08 00:33:00.001,n,0,14.04,12.24,19.44,25.2,69.8,1010.42,0,0,0,0,0.025215
2023/03/08 00:34:00.001,n,353,12.24,10.440002,17.28,25.2,69.9,1010.42,0,0,0,0,0.024338
2023/03/08 00:35:00.001,n,7,10.440002,5.04,13.32,25.2,70,1010.42,0,0,0,0,0.02697
2023/03/08 00:36:00.002,n,20,9,7.56,10.8,25.2,69.7,1010.32,0,0,0,0,0.026093
2023/03/08 00:37:00.001,n,2,11.16,7.92,14.04,25.2,69.8,1010.22,0,0,0,0,0.026093
2023/03/08 00:38:00.004,n,16,8.28,6.48,12.24,25.2,69.9,1010.22,0,0,0,0,0.027847
2023/03/08 00:39:00.001,n,8,12.96,11.16,16.2,25.2,69.7,1010.22,0,0,0,0,0.026093
2023/03/08 00:40:00.009,n,344,6.12,1.8,9,25.2,69.8,1010.22,0,0,0,0,0.024338
2023/03/08 00:41:00.010,n,352,12.96,8.64,15.84,25.2,69.7,1010.12,0,0,0,0,0.02346
2023/03/08 00:42:00.012,n,31,7.2,5.76,9,25.2,69.7,1010.12,0,0,0,0,0.02346
2023/03/08 00:43:00.001,n,13,12.96,11.52,15.84,25.1,69.9,1010.02,0,0,0,0,0.022621
2023/03/08 00:44:00.002,n,28,12.24,9.72,14.04,25.1,69.8,1010.02,0,0,0,0,0.02697
2023/03/08 00:45:00.004,n,18,10.8,6.48,13.68,25.1,69.9,1010.02,0,0,0,0,0.02346
2023/03/08 00:46:00.005,n,35,14.4,11.88,16.919998,25.1,69.7,1009.92,0,0,0,0,0.025215
2023/03/08 00:47:00.001,n,4,14.76,10.08,16.56,25.1,69.5,1009.92,0,0,0,0,0.024338
2023/03/08 00:48:00.002,n,30,11.16,9.72,12.6,25.1,69.5,1010.02,0,0,0,0,0.029564
2023/03/08 00:49:00.003,n,18,6.84,3.24,8.28,25.1,69.6,1010.02,0,0,0,0,0.028687
2023/03/08 00:50:00.009,n,9,13.68,9.72,16.2,25.1,69.5,1010.02,0,0,0,0,0.032196
2023/03/08 00:51:00.008,n,354,11.52,6.84,14.04,25.1,69.5,1010.12,0,0,0,0,0.029564
2023/03/08 00:52:00.001,n,15,6.48,4.68,7.56,25.1,69.5,1010.12,0,0,0,0,0.038261
2023/03/08 00:53:00.021,n,11,7.56,5.04,12.6,25.1,69.4,1010.12,0,0,0,0,0.037422
2023/03/08 00:54:00.017,n,349,10.8,7.2,13.32,25.1,69.5,1010.12,0,0,0,0,0.04261
2023/03/08 00:55:00.001,n,357,7.92,3.6,9.72,25.1,69.5,1010.12,0,0,0,0,0.048676
2023/03/08 00:56:00.001,n,354,11.88,8.28,14.04,25.1,69.6,1010.12,0,0,0,0,0.045242
2023/03/08 00:57:00.001,n,32,10.8,9,15.84,25.1,69.3,1010.02,0,0,0,0,0.023537
2023/03/08 00:58:00.007,n,10,11.16,7.56,12.24,25.1,69.4,1010.02,0,0,0,0,0.030479
2023/03/08 00:59:00.001,n,10,7.2,4.32,10.08,25.1,69.4,1010.02,0,0,0,0,0.032196
2023/03/08 01:00:00.010,n,0,7.92,5.4,11.16,25.1,69.4,1010.02,0,0,0,0,0.033951
2023/03/08 01:01:00.005,n,348,12.6,11.52,13.68,25.1,69.5,1010.02,0,0,0,0,0.033951
2023/03/08 01:02:00.006,n,3,12.6,11.16,15.12,25.1,69.5,1009.92,0,0,0,0,0.040932
2023/03/08 01:03:00.015,n,1,10.8,9.36,13.68,25.1,69.3,1009.92,0,0,0,0,0.040016
2023/03/08 01:04:00.001,n,358,9,5.76,11.16,25.1,69.3,1009.92,0,0,0,0,0.039177
2023/03/08 01:05:00.001,n,349,10.440002,7.2,12.96,25.1,69.4,1009.92,0,0,0,0,0.041771
2023/03/08 01:06:00.006,n,1,6.84,4.68,8.28,25.1,69.5,1009.92,0,0,0,0,0.045242
2023/03/08 01:07:00.006,n,352,8.64,5.76,12.24,25.1,69.4,1009.92,0,0,0,0,0.04612
2023/03/08 01:08:00.001,n,357,7.92,6.48,10.440002,25.1,69.4,1009.92,0,0,0,0,0.044365
2023/03/08 01:09:00.006,n,7,7.2,5.76,9.72,25.1,69.3,1009.92,0,0,0,0,0.047874
2023/03/08 01:10:00.009,n,11,9.36,6.84,12.96,25.1,69.3,1010.02,0,0,0,0,0.02697
2023/03/08 01:11:00.028,n,8,11.16,7.56,14.4,25.1,69.2,1010.02,0,0,0,0,0.029602
2023/03/08 01:12:00.007,n,12,10.08,9,13.32,25.1,69.1,1010.12,0,0,0,0,0.033035
2023/03/08 01:13:00.001,n,343,10.8,7.2,15.12,25.1,69.4,1010.12,0,0,0,0,0.034828
2023/03/08 01:14:00.004,n,339,12.6,11.16,16.56,25.1,69.4,1010.12,0,0,0,0,0.032196
2023/03/08 01:15:00.002,n,345,12.24,9.36,14.76,25.1,69.2,1010.02,0,0,0,0,0.032196
2023/03/08 01:16:00.003,n,16,9.36,6.84,13.32,25.1,69.2,1010.02,0,0,0,0,0.041771
2023/03/08 01:17:00.001,n,4,12.96,10.08,14.76,25.1,69.2,1009.92,0,0,0,0,0.034828
2023/03/08 01:18:00.001,n,349,10.8,7.92,14.4,25.1,69.4,1009.92,0,0,0,0,0.038261
2023/03/08 01:19:00.011,n,29,10.440002,8.64,11.52,25.1,68.9,1009.92,0,0,0,0,0.036545
2023/03/08 01:20:00.004,n,351,10.08,9,10.8,25.1,69.2,1009.92,0,0,0,0,0.035667
2023/03/08 01:21:00.002,n,12,8.28,4.68,11.52,25.1,69.2,1009.92,0,0,0,0,0.035667
2023/03/08 01:22:00.019,n,332,10.8,8.28,14.4,25.1,69.5,1009.92,0,0,0,0,0.037422
2023/03/08 01:23:00.001,n,4,9.72,6.48,12.96,25.1,69.3,1009.82,0,0,0,0,0.036545
2023/03/08 01:24:00.001,n,298,3.24,1.08,7.92,25.1,69.1,1009.82,0,0,0,0,0.039139
2023/03/08 01:25:00.001,n,14,11.88,9.36,13.68,25.1,69.1,1009.72,0,0,0,0,0.043488
2023/03/08 01:26:00.001,n,0,8.64,5.04,10.8,25,69.2,1009.72,0,0,0,0,0.042648
2023/03/08 01:27:00.006,n,4,9.72,7.56,12.24,25,69.2,1009.72,0,0,0,0,0.040894
2023/03/08 01:28:00.011,n,5,10.08,8.28,12.6,25,69.2,1009.62,0,0,0,0,0.038261
2023/03/08 01:29:00.004,n,15,8.28,7.92,9,25,69.3,1009.62,0,0,0,0,0.046082
2023/03/08 01:30:00.002,n,5,5.04,2.88,7.92,25,69.1,1009.62,0,0,0,0,0.045242
2023/03/08 01:31:00.013,n,1,11.88,9.72,16.2,25,69.1,1009.52,0,0,0,0,0.046997
2023/03/08 01:32:00.004,n,12,11.52,10.440002,12.6,25,69,1009.52,0,0,0,0,0.046997
2023/03/08 01:33:00.002,n,341,11.16,7.2,14.76,25,69,1009.52,0,0,0,0,0.040894
2023/03/08 01:34:00.010,n,356,12.96,10.08,16.56,25,68.9,1009.52,0,0,0,0,0.046082
2023/03/08 01:35:00.001,n,29,12.6,11.52,13.32,25,68.9,1009.52,0,0,0,0,0.045242
2023/03/08 01:36:00.006,n,26,3.6,1.08,5.76,25,68.9,1009.52,0,0,0,0,0.048714
2023/03/08 01:37:00.002,n,4,7.2,4.32,12.96,25,70.8,1009.52,0,0,0,0,0.047836
2023/03/08 01:38:00.017,n,14,11.88,3.96,16.56,25,68.7,1009.52,0,0,0,0,0.048714
2023/03/08 01:39:00.011,n,12,14.76,11.16,19.44,25,68.7,1009.52,0,0,0,0,0.047836
2023/03/08 01:40:00.001,n,20,14.04,11.88,16.919998,24.9,68.5,1009.42,0,0,0,0,0.046997
2023/03/08 01:41:00.005,n,0,13.32,10.8,16.56,24.9,68.5,1009.42,0,0,0,0,0.046997
2023/03/08 01:42:00.001,n,8,12.24,11.16,14.04,24.9,68.5,1009.42,0,0,0,0,0.021782
2023/03/08 01:43:00.001,n,357,8.64,5.76,12.96,24.9,68.5,1009.32,0,0,0,0,0.026131
2023/03/08 01:44:00.004,n,8,10.440002,7.92,13.68,25,68.7,1009.32,0,0,0,0,0.023499
2023/03/08 01:45:00.007,n,16,9.36,8.28,12.24,24.9,68.4,1009.22,0,0,0,0,0.025253
2023/03/08 01:46:00.010,n,339,6.12,3.6,8.28,24.9,68.6,1009.22,0,0,0,0,0.023499
2023/03/08 01:47:00.002,n,1,5.4,3.96,9,24.9,68.7,1009.22,0,0,0,0,0.02697
2023/03/08 01:48:00.008,n,352,9.72,7.92,11.88,24.9,68.5,1009.22,0,0,0,0,0.026131
2023/03/08 01:49:00.001,n,1,9.72,7.2,12.6,24.9,68.6,1009.12,0,0,0,0,0.026131
2023/03/08 01:50:00.001,n,22,6.84,2.16,10.08,24.9,68.4,1009.12,0,0,0,0,0.026131
2023/03/08 01:51:00.014,n,356,13.32,10.440002,16.56,24.9,67.8,1009.12,0,0,0,0,0.027847
2023/03/08 01:52:00.010,n,357,9.36,6.12,13.32,24.9,68.2,1009.22,0,0,0,0,0.029564
2023/03/08 01:53:00.007,n,3,10.08,7.2,12.24,24.9,68.3,1009.32,0,0,0,0,0.024376
2023/03/08 01:54:00.001,n,25,9,6.84,10.8,24.9,68,1009.32,0,0,0,0,0.027847
2023/03/08 01:55:00.001,n,348,12.6,10.440002,16.2,24.9,68.1,1009.32,0,0,0,0,0.02697
2023/03/08 01:56:00.010,n,13,16.56,12.96,17.28,24.9,67.9,1009.42,0,0,0,0,0.026131
2023/03/08 01:57:00.018,n,340,13.32,7.56,15.48,24.9,68.2,1009.42,0,0,0,0,0.02697
2023/03/08 01:58:00.002,n,31,9,6.12,12.6,24.9,68.1,1009.42,0,0,0,0,0.027847
2023/03/08 01:59:00.007,n,353,10.08,4.32,12.96,24.9,67.9,1009.42,0,0,0,0,0.028725
2023/03/08 02:00:00.001,n,0,15.84,14.04,18.359998,24.9,67.8,1009.32,0,0,0,0,0.026131
2023/03/08 02:01:00.001,n,357,16.56,14.4,22.319998,24.9,67.9,1009.32,0,0,0,0,0.029564
2023/03/08 02:02:00.010,n,14,7.92,6.48,9,24.9,68,1009.32,0,0,0,0,0.029564
2023/03/08 02:03:00.002,n,21,13.32,7.56,15.84,24.9,67.8,1009.32,0,0,0,0,0.028725
2023/03/08 02:04:00.001,n,2,12.6,11.88,13.32,24.9,67.9,1009.42,0,0,0,0,0.029564
2023/03/08 02:05:00.003,n,358,11.16,7.2,15.12,24.9,68.5,1009.42,0,0,0,0,0.029564
2023/03/08 02:06:00.016,n,321,12.6,9,15.48,24.9,68.7,1009.52,0,0,0,0,0.026131
2023/03/08 02:07:00.001,n,0,15.12,10.8,18.359998,24.9,68.2,1009.52,0,0,0,0,0.026131
2023/03/08 02:08:00.003,n,351,14.4,10.8,16.56,24.9,68.1,1009.52,0,0,0,0,0.026131
2023/03/08 02:09:00.001,n,347,11.16,8.28,14.76,24.9,68.2,1009.52,0,0,0,0,0.02697
2023/03/08 02:10:00.011,n,352,7.56,4.68,12.6,24.9,68,1009.52,0,0,0,0,0.031357
2023/03/08 02:11:00.011,n,345,16.2,13.68,18.359998,24.9,69.1,1009.42,0,0,0,0,0.027847
2023/03/08 02:12:00.002,n,7,14.4,13.32,15.84,24.9,68,1009.32,0,0,0,0,0.020905
2023/03/08 02:13:00.011,n,31,9.36,7.92,10.440002,24.9,68.2,1009.32,0,0,0,0,0.02697
2023/03/08 02:14:00.011,n,344,11.52,8.64,15.48,24.9,68.3,1009.32,0,0,0,0,0.026131
2023/03/08 02:15:00.020,n,6,8.28,6.48,10.8,24.8,68,1009.22,0,0,0,0,0.021782
2023/03/08 02:16:00.001,n,330,13.32,11.52,19.44,24.8,67.8,1009.22,0,0,0,0,0.023499
2023/03/08 02:17:00.001,n,6,9.72,7.56,12.6,24.8,67.9,1009.22,0,0,0,0,0.026131
2023/03/08 02:18:00.001,n,344,13.68,7.92,16.2,24.8,68.2,1009.32,0,0,0,0,0.024376
2023/03/08 02:19:00.001,n,345,11.16,7.2,14.4,24.8,68.1,1009.32,0,0,0,0,0.026131
2023/03/08 02:20:00.003,n,0,5.04,3.6,8.28,24.8,68.9,1009.32,0,0,0,0,0.027847
2023/03/08 02:21:00.005,n,2,10.8,7.92,14.4,24.8,68,1009.32,0,0,0,0,0.024376
2023/03/08 02:22:00.014,n,14,13.68,11.16,18,24.8,68,1009.32,0,0,0,0,0.023499
2023/03/08 02:23:00.014,n,355,9.36,5.4,12.24,24.8,67.9,1009.32,0,0,0,0,0.032196
2023/03/08 02:24:00.010,n,0,7.56,4.68,9.36,24.8,67.9,1009.32,0,0,0,0,0.027847
2023/03/08 02:25:00.001,n,347,10.08,5.04,14.4,24.8,67.8,1009.32,0,0,0,0,0.02697
2023/03/08 02:26:00.005,n,355,12.6,8.64,15.48,24.8,67.7,1009.32,0,0,0,0,0.027847
2023/03/08 02:27:00.005,n,31,10.08,5.76,14.04,24.8,67.7,1009.32,0,0,0,0,0.024376
2023/03/08 02:28:00.005,n,346,14.04,11.52,18.359998,24.8,67.8,1009.22,0,0,0,0,0.02697
2023/03/08 02:29:00.011,n,19,11.52,9.36,15.48,24.8,67.7,1009.32,0,0,0,0,0.027847
2023/03/08 02:30:00.015,n,86,4.68,3.24,5.76,24.8,67.7,1009.32,0,0,0,0,0.026131
2023/03/08 02:31:00.001,n,28,9,7.92,10.440002,24.8,67.8,1009.22,0,0,0,0,0.02697
2023/03/08 02:32:00.016,n,18,11.88,10.8,15.48,24.8,67.9,1009.32,0,0,0,0,0.027847
2023/03/08 02:33:00.013,n,16,8.28,0.72,12.96,24.8,67.8,1009.32,0,0,0,0,0.027847
2023/03/08 02:34:00.005,n,13,6.84,4.32,8.64,24.7,67.8,1009.32,0,0,0,0,0.028725
2023/03/08 02:35:00.003,n,355,15.84,13.32,18,24.7,67.6,1009.22,0,0,0,0,0.027847
2023/03/08 02:36:00.001,n,9,8.28,7.2,10.8,24.7,67.8,1009.22,0,0,0,0,0.028725
2023/03/08 02:37:00.006,n,341,11.88,11.52,14.04,24.7,68,1009.22,0,0,0,0,0.02697
2023/03/08 02:38:00.008,n,348,12.6,9.72,17.64,24.7,67.8,1009.12,0,0,0,0,0.028725
2023/03/08 02:39:00.004,n,355,9.72,6.84,14.4,24.7,69,1009.12,0,0,0,0,0.028725
2023/03/08 02:40:00.012,n,11,6.48,2.16,10.440002,24.7,67.9,1009.12,0,0,0,0,0.02697
2023/03/08 02:41:00.003,n,336,11.88,10.440002,16.2,24.7,67.9,1009.12,0,0,0,0,0.029564
2023/03/08 02:42:00.014,n,14,6.48,4.68,7.2,24.7,67.9,1009.12,0,0,0,0,0.027847
2023/03/08 02:43:00.001,n,264,2.16,0.72,4.32,24.7,67.9,1009.12,0,0,0,0,0.027847
2023/03/08 02:44:00.001,n,46,3.24,0.36,8.64,24.7,68.3,1009.12,0,0,0,0,0.024376
2023/03/08 02:45:00.001,n,16,6.84,2.88,9.36,24.7,67.7,1009.02,0,0,0,0,0.02697
2023/03/08 02:46:00.001,n,358,10.440002,7.56,12.96,24.7,67.9,1009.12,0,0,0,0,0.029564
2023/03/08 02:47:00.007,n,5,9,6.12,12.24,24.7,68,1009.12,0,0,0,0,0.02697
2023/03/08 02:48:00.018,n,2,9.36,7.56,12.96,24.7,67.7,1009.12,0,0,0,0,0.026131
2023/03/08 02:49:00.016,n,0,11.16,7.92,14.4,24.7,67.9,1009.12,0,0,0,0,0.02697
2023/03/08 02:50:00.019,n,0,6.48,5.4,9.72,24.7,68,1009.12,0,0,0,0,0.026131
2023/03/08 02:51:00.005,n,39,4.68,1.44,8.28,24.7,67.8,1009.12,0,0,0,0,0.030441
2023/03/08 02:52:00.002,n,354,7.56,5.04,12.24,24.6,67.7,1009.12,0,0,0,0,0.029564
2023/03/08 02:53:00.001,n,14,10.8,10.08,15.12,24.6,67.7,1009.22,0,0,0,0,0.031357
2023/03/08 02:54:00.001,n,8,9,8.28,10.08,24.6,67.8,1009.22,0,0,0,0,0.027847
2023/03/08 02:55:00.003,n,24,12.96,11.16,14.4,24.6,67.7,1009.22,0,0,0,0,0.032196
2023/03/08 02:56:00.014,n,342,14.04,12.6,19.44,24.6,67.9,1009.22,0,0,0,0,0.029564
2023/03/08 02:57:00.006,n,99,2.52,0.72,3.96,24.6,67.8,1009.22,0,0,0,0,0.027847
2023/03/08 02:58:00.015,n,30,5.4,4.68,6.48,24.7,67.9,1009.22,0,0,0,0,0.030441
2023/03/08 02:59:00.011,n,16,6.84,4.68,9,24.6,67.6,1009.12,0,0,0,0,0.030441
2023/03/08 03:00:00.002,n,340,6.84,3.96,10.08,24.6,69.5,1009.12,0,0,0,0,0.029564
2023/03/08 03:01:00.001,n,6,15.84,14.04,18,24.6,67.5,1009.12,0,0,0,0,0.027847
2023/03/08 03:02:00.010,n,7,6.12,3.24,9,24.6,67.5,1009.12,0,0,0,0,0.02697
2023/03/08 03:03:00.007,n,11,8.28,4.32,12.6,24.6,67.6,1009.12,0,0,0,0,0.026131
2023/03/08 03:04:00.005,n,338,13.68,11.52,15.48,24.6,68,1009.12,0,0,0,0,0.02697
2023/03/08 03:05:00.002,n,12,12.6,11.16,13.68,24.6,67.6,1009.02,0,0,0,0,0.027847
2023/03/08 03:06:00.001,n,3,6.84,4.68,12.24,24.6,67.8,1009.02,0,0,0,0,0.02697
2023/03/08 03:07:00.008,n,0,12.96,10.08,15.12,24.6,67.6,1009.02,0,0,0,0,0.026131
2023/03/08 03:08:00.015,n,353,17.64,16.2,20.16,24.6,67.5,1009.02,0,0,0,0,0.027847
2023/03/08 03:09:00.002,n,347,10.8,7.56,14.4,24.6,67.5,1009.12,0,0,0,0,0.02697
2023/03/08 03:10:00.001,n,346,12.96,10.08,15.48,24.6,68.3,1009.12,0,0,0,0,0.028725
2023/03/08 03:11:00.015,n,350,7.56,6.12,10.440002,24.6,67.9,1009.12,0,0,0,0,0.027847
2023/03/08 03:12:00.001,n,0,13.68,12.24,18,24.6,68.2,1009.12,0,0,0,0,0.022621
2023/03/08 03:13:00.005,n,2,6.84,4.32,10.8,24.6,67.6,1009.12,0,0,0,0,0.026131
2023/03/08 03:14:00.010,n,10,7.56,5.76,11.52,24.6,68.2,1009.12,0,0,0,0,0.026131
2023/03/08 03:15:00.013,n,353,10.440002,7.56,13.32,24.6,69.3,1009.12,0,0,0,0,0.026131
2023/03/08 03:16:00.024,n,12,8.28,1.8,12.96,24.6,68.1,1009.12,0,0,0,0,0.024376
2023/03/08 03:17:00.011,n,16,9.72,9,13.68,24.6,67.6,1009.12,0,0,0,0,0.024376
2023/03/08 03:18:00.019,n,334,12.24,8.28,15.12,24.5,68.6,1009.12,0,0,0,0,0.024376
2023/03/08 03:19:00.002,n,345,9.72,6.48,13.32,24.5,68,1009.12,0,0,0,0,0.022621
2023/03/08 03:20:00.005,n,346,12.96,9.72,15.84,24.5,67.6,1009.12,0,0,0,0,0.025253
2023/03/08 03:21:00.008,n,325,14.04,8.28,17.64,24.5,67.9,1009.12,0,0,0,0,0.021782
2023/03/08 03:22:00.008,n,333,21.24,18,22.68,24.5,67.7,1009.12,0,0,0,0,0.023499
2023/03/08 03:23:00.004,n,348,12.6,11.88,13.32,24.5,68.2,1009.12,0,0,0,0,0.022621
2023/03/08 03:24:00.001,n,334,14.76,9.72,21.599998,24.5,68.6,1009.12,0,0,0,0,0.025253
2023/03/08 03:25:00.010,n,10,18.72,16.2,21.24,24.5,67.8,1009.12,0,0,0,0,0.020905
2023/03/08 03:26:00.003,n,12,10.440002,8.28,13.32,24.5,67.8,1009.12,0,0,0,0,0.022621
2023/03/08 03:27:00.013,n,343,18.359998,15.84,21.599998,24.5,67.9,1009.12,0,0,0,0,0.017395
2023/03/08 03:28:00.002,n,357,16.56,11.88,19.8,24.5,67.9,1009.12,0,0,0,0,0.019188
2023/03/08 03:29:00.001,n,0,7.92,5.76,10.08,24.5,67.8,1009.22,0,0,0,0,0.018272
2023/03/08 03:30:00.004,n,0,9.36,7.2,13.68,24.5,68,1009.22,0,0,0,0,0.015678
2023/03/08 03:31:00.001,n,14,11.16,7.92,15.12,24.5,67.9,1009.22,0,0,0,0,0.024376
2023/03/08 03:32:00.004,n,334,13.32,10.08,17.28,24.5,68.1,1009.22,0,0,0,0,0.029564
2023/03/08 03:33:00.001,n,27,7.56,2.88,10.440002,24.5,68,1009.32,0,0,0,0,0.032196
2023/03/08 03:34:00.014,n,8,13.68,11.16,18,24.5,67.9,1009.32,0,0,0,0,0.030441
2023/03/08 03:35:00.024,n,335,14.4,13.32,16.56,24.4,68.1,1009.32,0,0,0,0,0.030441
2023/03/08 03:36:00.008,n,340,8.64,5.76,12.6,24.5,69.1,1009.32,0,0,0,0,0.02697
2023/03/08 03:37:00.006,n,356,11.88,7.92,15.84,24.4,68.8,1009.32,0,0,0,0,0.025215
2023/03/08 03:38:00.001,n,335,10.440002,6.12,15.12,24.5,68.3,1009.32,0,0,0,0,0.026131
2023/03/08 03:39:00.003,n,29,7.2,1.8,9.72,24.5,68.3,1009.32,0,0,0,0,0.025215
2023/03/08 03:40:00.001,n,30,6.48,1.8,9,24.4,68,1009.32,0,0,0,0,0.033073
2023/03/08 03:41:00.001,n,8,13.32,11.16,16.2,24.4,68,1009.22,0,0,0,0,0.025215
2023/03/08 03:42:00.012,n,31,9,2.88,14.04,24.4,68,1009.22,0,0,0,0,0.02697
2023/03/08 03:43:00.007,n,31,10.8,6.12,14.04,24.4,68,1009.22,0,0,0,0,0.024376
2023/03/08 03:44:00.012,n,354,14.4,12.24,17.28,24.4,67.8,1009.22,0,0,0,0,0.031319
2023/03/08 03:45:00.009,n,357,5.4,3.6,10.08,24.4,67.9,1009.22,0,0,0,0,0.025215
2023/03/08 03:46:00.002,n,30,12.6,12.24,13.32,24.4,68,1009.22,0,0,0,0,0.02697
2023/03/08 03:47:00.001,n,13,10.8,8.64,12.96,24.4,68,1009.12,0,0,0,0,0.02697
2023/03/08 03:48:00.003,n,348,16.56,13.68,19.08,24.4,68,1009.12,0,0,0,0,0.027847
2023/03/08 03:49:00.002,n,348,8.64,6.48,12.6,24.4,68.1,1009.12,0,0,0,0,0.02697
2023/03/08 03:50:00.002,n,4,10.440002,8.64,11.88,24.4,68.1,1009.12,0,0,0,0,0.026131
2023/03/08 03:51:00.007,n,22,11.88,7.56,16.2,24.4,68,1009.12,0,0,0,0,0.02697
2023/03/08 03:52:00.008,n,24,5.76,5.4,6.12,24.4,68.2,1009.22,0,0,0,0,0.027847
2023/03/08 03:53:00.002,n,29,2.88,1.08,5.4,24.4,68.1,1009.22,0,0,0,0,0.027847
2023/03/08 03:54:00.020,n,17,7.56,4.68,9.72,24.4,68.1,1009.22,0,0,0,0,0.027847
2023/03/08 03:55:00.001,n,25,6.12,3.96,9,24.4,68.5,1009.22,0,0,0,0,0.026131
2023/03/08 03:56:00.001,n,229,7.56,2.16,12.24,24.4,68,1009.22,0,0,0,0,0.027847
2023/03/08 03:57:00.001,n,24,8.28,6.84,11.16,24.4,68.2,1009.32,0,0,0,0,0.02697
2023/03/08 03:58:00.001,n,323,10.440002,8.28,15.48,24.4,69.4,1009.32,0,0,0,0,0.029564
2023/03/08 03:59:00.002,n,8,10.08,8.64,12.6,24.4,68.1,1009.32,0,0,0,0,0.023499
2023/03/08 04:00:00.001,n,349,10.8,9.36,12.24,24.4,68.1,1009.42,0,0,0,0,0.029564
2023/03/08 04:01:00.002,n,3,11.16,8.64,11.88,24.4,68.4,1009.42,0,0,0,0,0.024376
2023/03/08 04:02:00.010,n,23,8.64,7.92,9.72,24.4,68.2,1009.42,0,0,0,0,0.027847
2023/03/08 04:03:00.005,n,330,6.48,0.72,14.04,24.4,69.5,1009.42,0,0,0,0,0.026131
2023/03/08 04:04:00.001,n,21,7.2,3.6,10.440002,24.4,68.1,1009.32,0,0,0,0,0.02697
2023/03/08 04:05:00.001,n,26,13.32,11.88,15.84,24.4,68,1009.22,0,0,0,0,0.028725
2023/03/08 04:06:00.013,n,38,4.32,2.52,6.48,24.4,68.1,1009.22,0,0,0,0,0.030441
2023/03/08 04:07:00.005,n,27,15.48,12.6,18.359998,24.4,68.1,1009.22,0,0,0,0,0.027847
2023/03/08 04:08:00.004,n,10,5.76,3.96,8.28,24.4,68.2,1009.22,0,0,0,0,0.027847
2023/03/08 04:09:00.006,n,354,11.88,9.36,15.48,24.4,68.3,1009.22,0,0,0,0,0.02697
2023/03/08 04:10:00.021,n,30,12.96,8.64,16.919998,24.4,68,1009.22,0,0,0,0,0.029564
2023/03/08 04:11:00.004,n,0,9,7.56,12.24,24.4,68,1009.22,0,0,0,0,0.030441
2023/03/08 04:12:00.005,n,342,8.28,5.4,11.88,24.4,68.9,1009.32,0,0,0,0,0.030441
2023/03/08 04:13:00.004,n,346,14.04,12.96,18.359998,24.4,68.2,1009.32,0,0,0,0,0.030441
2023/03/08 04:14:00.001,n,10,9.36,5.4,11.52,24.4,68.8,1009.32,0,0,0,0,0.027847
2023/03/08 04:15:00.001,n,20,10.08,8.28,12.96,24.4,68.2,1009.32,0,0,0,0,0.026131
2023/03/08 04:16:00.001,n,350,10.08,8.28,11.88,24.4,68.4,1009.32,0,0,0,0,0.027847
2023/03/08 04:17:00.014,n,21,11.88,10.8,15.48,24.4,68.5,1009.32,0,0,0,0,0.02697
2023/03/08 04:18:00.005,n,347,12.96,10.08,15.84,24.3,68.6,1009.32,0,0,0,0,0.02697
2023/03/08 04:19:00.015,n,193,2.88,1.08,4.68,24.3,68.8,1009.32,0,0,0,0,0.029564
2023/03/08 04:20:00.012,n,15,8.28,5.04,11.52,24.3,69.1,1009.22,0,0,0,0,0.028725
2023/03/08 04:21:00.009,n,12,12.96,11.52,15.84,24.3,68.6,1009.22,0,0,0,0,0.027847
2023/03/08 04:22:00.001,n,19,7.92,7.2,8.64,24.3,68.9,1009.32,0,0,0,0,0.030441
2023/03/08 04:23:00.012,n,345,11.88,9.36,15.48,24.3,69,1009.32,0,0,0,0,0.027847
2023/03/08 04:24:00.001,n,1,9,6.48,11.88,24.3,69.1,1009.32,0,0,0,0,0.031319
2023/03/08 04:25:00.001,n,13,6.12,5.04,7.2,24.3,69.2,1009.32,0,0,0,0,0.031319
2023/03/08 04:26:00.007,n,17,6.84,5.04,9.72,24.3,69.2,1009.32,0,0,0,0,0.027847
2023/03/08 04:27:00.001,n,337,12.96,11.16,16.919998,24.2,68.7,1009.32,0,0,0,0,0.028725
2023/03/08 04:28:00.002,n,350,10.8,6.48,13.68,24.2,68.9,1009.32,0,0,0,0,0.027847
2023/03/08 04:29:00.010,n,340,11.88,8.28,15.84,24.2,68.9,1009.32,0,0,0,0,0.030441
2023/03/08 04:30:00.016,n,358,7.56,4.32,9.72,24.2,69.3,1009.32,0,0,0,0,0.027847
2023/03/08 04:31:00.001,n,23,7.56,5.76,9,24.2,69.1,1009.32,0,0,0,0,0.025215
2023/03/08 04:32:00.003,n,4,11.88,8.28,14.76,24.2,69,1009.42,0,0,0,0,0.02697
2023/03/08 04:33:00.001,n,26,6.84,1.08,14.04,24.2,68.9,1009.42,0,0,0,0,0.020905
2023/03/08 04:34:00.007,n,10,14.04,12.96,16.2,24.2,68.6,1009.32,0,0,0,0,0.023499
2023/03/08 04:35:00.001,n,4,10.8,8.64,12.96,24.2,68.7,1009.42,0,0,0,0,0.026093
2023/03/08 04:36:00.011,n,17,13.32,12.24,14.76,24.2,68.5,1009.42,0,0,0,0,0.023499
2023/03/08 04:37:00.014,n,0,8.64,6.12,13.68,24.2,68.6,1009.42,0,0,0,0,0.021706
2023/03/08 04:38:00.014,n,0,10.08,7.2,11.52,24.2,68.6,1009.52,0,0,0,0,0.018272
2023/03/08 04:39:00.007,n,37,2.88,0.36,7.2,24.2,68.8,1009.52,0,0,0,0,0.020828
2023/03/08 04:40:00.002,n,339,13.68,10.8,17.28,24.2,68.9,1009.52,0,0,0,0,0.025215
2023/03/08 04:41:00.001,n,339,10.8,8.64,15.84,24.2,68.2,1009.52,0,0,0,0,0.024338
2023/03/08 04:42:00.003,n,9,10.8,9,12.96,24.2,68.7,1009.62,0,0,0,0,0.024338
2023/03/08 04:43:00.002,n,3,12.6,11.16,15.48,24.3,68.5,1009.62,0,0,0,0,0.017395
2023/03/08 04:44:00.001,n,2,6.84,4.68,11.52,24.3,68.7,1009.62,0,0,0,0,0.014763
2023/03/08 04:45:00.006,n,345,10.440002,9,12.96,24.3,68.3,1009.62,0,0,0,0,0.019989
2023/03/08 04:46:00.013,n,351,10.440002,8.28,13.68,24.3,69.8,1009.62,0,0,0,0,0.026093
2023/03/08 04:47:00.006,n,23,9,7.56,12.24,24.3,68.5,1009.62,0,0,0,0,0.022583
2023/03/08 04:48:00.002,n,7,7.92,5.4,12.6,24.3,68.3,1009.62,0,0,0,0,0.022583
2023/03/08 04:49:00.002,n,351,13.32,12.96,14.4,24.3,67.8,1009.72,0,0,0,0,0.02346
2023/03/08 04:50:00.001,n,352,12.96,10.440002,18,24.3,68.4,1009.72,0,0,0,0,0.025215
2023/03/08 04:51:00.003,n,351,8.64,2.88,13.68,24.3,69.1,1009.82,0,0,0,0,0.021744
2023/03/08 04:52:00.001,n,355,7.56,6.12,8.64,24.3,68.3,1009.82,0,0,0,0,0.016518